Regional Weather Roundup
Issued by NWS

Home | Current Version | Previous Version | Text Only | Print | Product List | Glossary On
Versions: 1 2 3 4 5 6 7 8 9 10 11 12 13 14 15 16 17 18 19 20 21 22 23 24 25 26 27 28 29 30 31 32 33 34 35 36 37 38 39 40 41 42 43 44 45 46 47 48 49 50
651
ASUS44 KJAN 211003
RWRMS

MISSISSIPPI HOURLY WEATHER ROUNDUP
NATIONAL WEATHER SERVICE JACKSON MS
500 AM CDT MON APR 21 2014

NOTE: "FAIR: INDICATES FEW OR NO CLOUDS BELOW 12,000 FEET WITH NO
SIGNIFICANT WEATHER AND/OR OBSTRUCTIONS TO VISIBILITY.

MSZ001>002-007>008-010>013-018>021-025>028-034>036-211100-
NORTHWEST MISSISSIPPI

CITY           SKY/WX    TMP DP  RH WIND       PRES   REMARKS
CLARKSDALE       N/A     63  54  72 CALM      30.08S
CLEVELAND      FAIR      64  54  71 S8        30.06F
GREENWOOD      PTCLDY    60  53  77 S7        30.08F
GREENVILLE     PTCLDY    63  53  70 S8        30.06S
GRENADA        FAIR      54  52  94 CALM      30.08F
OLIVE BRANCH   CLEAR     57  54  88 S6        30.07S
OXFORD         FAIR      54  48  82 CALM      30.09F
TUNICA         CLOUDY    59  52  77 S5        30.07S
$$

MSZ003>006-009-014>017-022>024-029>033-037>039-211100-
NORTHEAST MISSISSIPPI

CITY           SKY/WX    TMP DP  RH WIND       PRES   REMARKS
BELMONT        FAIR      49  48  93 CALM      30.11S
COLUMBUS AFB   CLEAR     49  49 100 CALM      30.11R
CORINTH        FAIR      50  48  93 CALM      30.10S
GOLDN TRIANGLE CLEAR     52  46  82 S5        30.14R
STARKVILLE     FAIR      50  48  93 CALM      30.11S
TUPELO         CLEAR     53  50  89 SW3       30.10S
$$

MSZ040-058-211100-
CENTRAL MISSISSIPPI

CITY           SKY/WX    TMP DP  RH WIND       PRES   REMARKS
JACKSON INTL   CLEAR     57  54  89 S6        30.12S
JACKSON HAWKNS CLEAR     59  55  87 S8        30.11F
MERIDIAN KEY   CLEAR     51  50  96 CALM      30.13S
MERIDIAN NAS   CLEAR     52  49  89 CALM      30.12S
RAYMOND        FAIR      55  50  82 SE6       30.11S
VICKSBURG      CLEAR     61  55  81 SE6       30.09S
$$

MSZ059>079-211100-
SOUTH MISSISSIPPI

CITY           SKY/WX    TMP DP  RH WIND       PRES   REMARKS
BROOKHAVEN     CLOUDY    61  59  94 S5        30.14S FOG
COLUMBIA       CLOUDY    57  57 100 MISG      30.13S FOG
HATTIESBURG    CLEAR     58  56  93 CALM      30.14S
MCCOMB         CLOUDY    61  59  93 S5        30.13S
NATCHEZ        CLEAR     57  54  88 S8        30.11S
PINE BELT      PTCLDY    55  52  88 CALM      30.14S
$$

MSZ080>082-211100-
COASTAL MISSISSIPPI

CITY           SKY/WX    TMP DP  RH WIND       PRES   REMARKS
BILOXI         CLEAR     58  58 100 CALM      30.13S
PASCAGOULA     CLEAR     53  52  96 CALM      30.14R FOG
GULFPORT       CLEAR     58  54  86 N3        30.13S
$$



USA.gov is the U.S. government's official web portal to all federal, state and local government web resources and services.